| time (UTC) | temp F | wind direction | speed MPH | gust MPH | rain 1hr in | rain 24hr in | rain mn in | humidity % | barometer mb |
| 20260901001026 | 76 | 0 | 0.0 | 0.0 | 0.00 | 0.15 | 0.15 | 93 | 1015.9 |
| 20260901000525 | 76 | 0 | 0.0 | 3.0 | 0.00 | 0.15 | 0.15 | 93 | 1015.7 |
| 20260901000049 | 76 | 0 | 0.0 | 4.0 | 0.00 | 0.15 | 0.15 | 93 | 1015.6 |
| 20260831235525 | 76 | 90 | 1.0 | 4.0 | 0.00 | 0.15 | 0.15 | 93 | 1015.6 |
| 20260831235026 | 76 | 79 | 1.0 | 4.0 | 0.00 | 0.15 | 0.15 | 93 | 1015.5 |
| 20260831234545 | 76 | 0 | 0.0 | 2.0 | 0.00 | 0.15 | 0.15 | 93 | 1015.6 |
| 20260831234024 | 77 | 86 | 0.0 | 2.0 | 0.00 | 0.15 | 0.15 | 92 | 1015.6 |
| 20260831233524 | 77 | 0 | 0.0 | 3.0 | 0.00 | 0.15 | 0.15 | 93 | 1015.6 |
| 20260831233042 | 77 | 90 | 0.0 | 4.0 | 0.00 | 0.15 | 0.15 | 93 | 1015.6 |
| 20260831232535 | 76 | 110 | 1.0 | 4.0 | 0.00 | 0.15 | 0.15 | 93 | 1015.7 |
| 20260831232025 | 76 | 92 | 2.0 | 4.0 | 0.00 | 0.15 | 0.15 | 92 | 1015.7 |
| 20260831231544 | 77 | 118 | 2.0 | 4.0 | 0.00 | 0.15 | 0.15 | 92 | 1015.7 |
| 20260831231025 | 77 | 83 | 2.0 | 5.0 | 0.00 | 0.15 | 0.15 | 92 | 1015.6 |
| 20260831230529 | 77 | 81 | 2.0 | 7.0 | 0.00 | 0.15 | 0.15 | 92 | 1015.6 |
| 20260831230046 | 77 | 76 | 2.0 | 7.0 | 0.00 | 0.15 | 0.15 | 93 | 1015.7 |
| 20260831225523 | 77 | 119 | 2.0 | 6.0 | 0.00 | 0.15 | 0.15 | 92 | 1015.6 |
| 20260831225026 | 77 | 101 | 2.0 | 8.0 | 0.00 | 0.15 | 0.15 | 92 | 1015.6 |
| 20260831224541 | 77 | 73 | 3.0 | 8.0 | 0.01 | 0.15 | 0.15 | 92 | 1015.5 |
| 20260831224025 | 77 | 57 | 4.0 | 9.0 | 0.01 | 0.15 | 0.15 | 93 | 1015.4 |
| 20260831223530 | 76 | 90 | 5.0 | 11.0 | 0.02 | 0.15 | 0.15 | 93 | 1015.5 |
| 20260831223042 | 76 | 85 | 6.0 | 11.0 | 0.04 | 0.15 | 0.15 | 93 | 1015.5 |
| 20260831222524 | 76 | 78 | 5.0 | 12.0 | 0.04 | 0.15 | 0.15 | 93 | 1015.7 |
| 20260831222026 | 76 | 68 | 5.0 | 13.0 | 0.05 | 0.15 | 0.15 | 93 | 1015.7 |
| 20260831221556 | 76 | 58 | 8.0 | 14.0 | 0.06 | 0.15 | 0.15 | 94 | 1015.5 |
| 20260831221028 | 77 | 85 | 7.0 | 14.0 | 0.07 | 0.15 | 0.15 | 94 | 1015.6 |
| 20260831220520 | 77 | 86 | 6.0 | 11.0 | 0.08 | 0.15 | 0.15 | 94 | 1015.6 |
| 20260831220057 | 77 | 60 | 5.0 | 9.0 | 0.09 | 0.15 | 0.15 | 94 | 1015.6 |
| 20260831215519 | 77 | 115 | 3.0 | 9.0 | 0.09 | 0.15 | 0.15 | 94 | 1015.7 |
| 20260831215026 | 77 | 89 | 5.0 | 11.0 | 0.10 | 0.15 | 0.15 | 94 | 1015.8 |
| 20260831214549 | 77 | 96 | 3.0 | 11.0 | 0.10 | 0.14 | 0.14 | 94 | 1015.9 |
| 20260831214026 | 77 | 89 | 5.0 | 11.0 | 0.10 | 0.13 | 0.13 | 94 | 1015.9 |
| 20260831213524 | 77 | 85 | 5.0 | 9.0 | 0.09 | 0.12 | 0.12 | 94 | 1016.1 |
| 20260831213047 | 77 | 111 | 3.0 | 8.0 | 0.09 | 0.11 | 0.11 | 94 | 1016.1 |
| 20260831212526 | 76 | 107 | 3.0 | 8.0 | 0.09 | 0.11 | 0.11 | 94 | 1016.0 |
| 20260831212024 | 76 | 98 | 3.0 | 8.0 | 0.10 | 0.10 | 0.10 | 94 | 1016.0 |
| 20260831211542 | 76 | 106 | 3.0 | 8.0 | 0.09 | 0.09 | 0.09 | 94 | 1015.9 |
| 20260831211022 | 76 | 61 | 4.0 | 7.0 | 0.08 | 0.08 | 0.08 | 94 | 1015.9 |
| 20260831210519 | 76 | 64 | 4.0 | 7.0 | 0.07 | 0.07 | 0.07 | 94 | 1015.8 |
| 20260831210042 | 76 | 89 | 3.0 | 7.0 | 0.06 | 0.06 | 0.06 | 94 | 1015.8 |
| 20260831205527 | 76 | 66 | 3.0 | 7.0 | 0.06 | 0.06 | 0.06 | 94 | 1015.9 |
| 20260831205026 | 76 | 88 | 3.0 | 8.0 | 0.04 | 0.04 | 0.04 | 94 | 1016.1 |
| 20260831204554 | 76 | 78 | 3.0 | 8.0 | 0.04 | 0.04 | 0.04 | 93 | 1016.1 |
| 20260831204026 | 76 | 63 | 4.0 | 8.0 | 0.03 | 0.03 | 0.03 | 93 | 1016.2 |
| 20260831203523 | 76 | 66 | 4.0 | 10.0 | 0.03 | 0.03 | 0.03 | 93 | 1016.2 |
| 20260831203045 | 76 | 85 | 5.0 | 10.0 | 0.02 | 0.02 | 0.02 | 92 | 1016.2 |
| 20260831202521 | 77 | 57 | 5.0 | 9.0 | 0.02 | 0.02 | 0.02 | 91 | 1016.3 |
| 20260831202027 | 77 | 63 | 2.0 | 12.0 | 0.00 | 0.00 | 0.00 | 91 | 1016.4 |
| 20260831201542 | 78 | 89 | 4.0 | 12.0 | 0.00 | 0.00 | 0.00 | 90 | 1016.4 |
| 20260831201023 | 78 | 118 | 6.0 | 12.0 | 0.00 | 0.00 | 0.00 | 89 | 1016.3 |
| 20260831200526 | 78 | 105 | 7.0 | 16.0 | 0.00 | 0.00 | 0.00 | 89 | 1016.3 |
| 20260831200054 | 78 | 84 | 8.0 | 18.0 | 0.00 | 0.00 | 0.00 | 89 | 1016.2 |
| 20260831195528 | 79 | 91 | 10.0 | 23.0 | 0.00 | 0.00 | 0.00 | 88 | 1016.1 |
| 20260831195025 | 79 | 86 | 11.0 | 25.0 | 0.00 | 0.00 | 0.00 | 87 | 1016.0 |
| 20260831194544 | 81 | 45 | 15.0 | 25.0 | 0.00 | 0.00 | 0.00 | 84 | 1016.0 |
| 20260831194025 | 84 | 57 | 11.0 | 22.0 | 0.00 | 0.00 | 0.00 | 79 | 1015.9 |
| 20260831193519 | 86 | 69 | 9.0 | 18.0 | 0.00 | 0.00 | 0.00 | 75 | 1015.7 |
| 20260831193044 | 89 | 76 | 7.0 | 13.0 | 0.00 | 0.00 | 0.00 | 71 | 1015.5 |
| 20260831192521 | 91 | 309 | 1.0 | 4.0 | 0.00 | 0.00 | 0.00 | 70 | 1015.2 |
| 20260831192026 | 92 | 313 | 1.0 | 5.0 | 0.00 | 0.00 | 0.00 | 67 | 1015.1 |
| 20260831191538 | 92 | 257 | 1.0 | 6.0 | 0.00 | 0.00 | 0.00 | 67 | 1015.1 |
| 20260831191021 | 91 | 36 | 2.0 | 8.0 | 0.00 | 0.00 | 0.00 | 65 | 1015.2 |
| 20260831190525 | 90 | 256 | 2.0 | 8.0 | 0.00 | 0.00 | 0.00 | 70 | 1015.3 |
| 20260831190057 | 90 | 256 | 3.0 | 7.0 | 0.00 | 0.00 | 0.00 | 67 | 1015.3 |
| 20260831185525 | 90 | 275 | 2.0 | 5.0 | 0.00 | 0.04 | 0.00 | 70 | 1015.3 |
| 20260831185025 | 89 | 0 | 0.0 | 5.0 | 0.00 | 0.04 | 0.00 | 72 | 1015.3 |
| 20260831184543 | 90 | 319 | 0.0 | 5.0 | 0.00 | 0.04 | 0.00 | 70 | 1015.5 |
| 20260831184020 | 90 | 301 | 0.0 | 3.0 | 0.00 | 0.04 | 0.00 | 72 | 1015.4 |
| 20260831183523 | 87 | 0 | 0.0 | 6.0 | 0.00 | 0.04 | 0.00 | 73 | 1015.5 |
| 20260831183041 | 88 | 0 | 0.0 | 6.0 | 0.00 | 0.04 | 0.00 | 73 | 1015.5 |
| 20260831182520 | 90 | 32 | 3.0 | 6.0 | 0.00 | 0.04 | 0.00 | 66 | 1015.6 |
| 20260831182021 | 90 | 294 | 1.0 | 4.0 | 0.00 | 0.04 | 0.00 | 68 | 1015.7 |
| 20260831181540 | 89 | 0 | 0.0 | 4.0 | 0.00 | 0.04 | 0.00 | 69 | 1015.8 |
| 20260831181025 | 90 | 123 | 1.0 | 4.0 | 0.00 | 0.04 | 0.00 | 71 | 1015.9 |
| 20260831180525 | 90 | 0 | 1.0 | 4.0 | 0.00 | 0.04 | 0.00 | 67 | 1016.0 |
| 20260831180050 | 89 | 270 | 1.0 | 4.0 | 0.00 | 0.04 | 0.00 | 71 | 1016.0 |
| 20260831175524 | 88 | 140 | 1.0 | 7.0 | 0.00 | 0.04 | 0.00 | 74 | 1016.0 |
| 20260831175024 | 88 | 281 | 4.0 | 7.0 | 0.00 | 0.04 | 0.00 | 67 | 1016.1 |
| 20260831174546 | 89 | 226 | 1.0 | 8.0 | 0.00 | 0.04 | 0.00 | 68 | 1016.2 |
| 20260831174022 | 90 | 39 | 3.0 | 8.0 | 0.00 | 0.04 | 0.00 | 70 | 1016.3 |
| 20260831173521 | 89 | 261 | 1.0 | 4.0 | 0.00 | 0.04 | 0.00 | 71 | 1016.3 |
| 20260831173041 | 89 | 302 | 0.0 | 4.0 | 0.00 | 0.04 | 0.00 | 73 | 1016.4 |
| 20260831172525 | 90 | 0 | 1.0 | 4.0 | 0.00 | 0.04 | 0.00 | 67 | 1016.6 |
| 20260831172025 | 90 | 55 | 0.0 | 5.0 | 0.00 | 0.04 | 0.00 | 70 | 1016.5 |
| 20260831171552 | 89 | 300 | 1.0 | 5.0 | 0.00 | 0.04 | 0.00 | 67 | 1016.5 |
| 20260831171025 | 88 | 0 | 1.0 | 7.0 | 0.00 | 0.04 | 0.00 | 70 | 1016.7 |
| 20260831170524 | 87 | 274 | 2.0 | 7.0 | 0.00 | 0.04 | 0.00 | 72 | 1016.8 |
| 20260831170043 | 89 | 281 | 1.0 | 5.0 | 0.00 | 0.04 | 0.00 | 73 | 1016.9 |
| 20260831165523 | 88 | 53 | 2.0 | 6.0 | 0.00 | 0.04 | 0.00 | 73 | 1017.0 |
| 20260831165023 | 87 | 72 | 3.0 | 6.0 | 0.00 | 0.04 | 0.00 | 73 | 1017.1 |
| 20260831164555 | 87 | 69 | 0.0 | 4.0 | 0.00 | 0.04 | 0.00 | 79 | 1017.2 |
| 20260831164024 | 85 | 294 | 2.0 | 3.0 | 0.00 | 0.04 | 0.00 | 75 | 1017.2 |
| 20260831163526 | 85 | 0 | 0.0 | 3.0 | 0.00 | 0.04 | 0.00 | 75 | 1017.2 |
| 20260831163052 | 88 | 0 | 0.0 | 3.0 | 0.00 | 0.04 | 0.00 | 72 | 1017.2 |
| 20260831162525 | 88 | 0 | 0.0 | 3.0 | 0.00 | 0.04 | 0.00 | 79 | 1017.4 |
| 20260831162026 | 87 | 0 | 0.0 | 3.0 | 0.00 | 0.04 | 0.00 | 75 | 1017.4 |
| 20260831161545 | 86 | 0 | 0.0 | 4.0 | 0.00 | 0.04 | 0.00 | 76 | 1017.4 |
| 20260831161023 | 86 | 0 | 1.0 | 6.0 | 0.00 | 0.04 | 0.00 | 75 | 1017.4 |
| 20260831160527 | 87 | 0 | 1.0 | 7.0 | 0.00 | 0.04 | 0.00 | 76 | 1017.5 |
| 20260831160047 | 87 | 63 | 3.0 | 7.0 | 0.00 | 0.04 | 0.00 | 74 | 1017.5 |
| 20260831155525 | 87 | 61 | 0.0 | 7.0 | 0.00 | 0.04 | 0.00 | 76 | 1017.4 |
| 20260831155026 | 87 | 93 | 3.0 | 7.0 | 0.00 | 0.04 | 0.00 | 75 | 1017.4 |
| 20260831154608 | 86 | 84 | 1.0 | 7.0 | 0.00 | 0.04 | 0.00 | 78 | 1017.5 |
| 20260831154028 | 84 | 275 | 2.0 | 3.0 | 0.00 | 0.04 | 0.00 | 79 | 1017.5 |
| 20260831153525 | 84 | 255 | 0.0 | 4.0 | 0.00 | 0.04 | 0.00 | 81 | 1017.6 |
| 20260831153049 | 85 | 0 | 0.0 | 4.0 | 0.00 | 0.04 | 0.00 | 77 | 1017.6 |
| 20260831152523 | 87 | 46 | 2.0 | 4.0 | 0.00 | 0.04 | 0.00 | 77 | 1017.6 |
| 20260831152023 | 87 | 108 | 1.0 | 4.0 | 0.00 | 0.04 | 0.00 | 78 | 1017.5 |
| 20260831151548 | 86 | 63 | 2.0 | 5.0 | 0.00 | 0.04 | 0.00 | 77 | 1017.6 |
| 20260831151025 | 86 | 42 | 2.0 | 5.0 | 0.00 | 0.04 | 0.00 | 79 | 1017.6 |
| 20260831150526 | 86 | 24 | 1.0 | 4.0 | 0.00 | 0.04 | 0.00 | 77 | 1017.5 |
| 20260831150050 | 85 | 105 | 0.0 | 6.0 | 0.00 | 0.04 | 0.00 | 80 | 1017.4 |
| 20260831145526 | 85 | 54 | 2.0 | 6.0 | 0.00 | 0.04 | 0.00 | 79 | 1017.5 |
| 20260831145025 | 85 | 45 | 1.0 | 5.0 | 0.00 | 0.04 | 0.00 | 81 | 1017.4 |
| 20260831144559 | 84 | 190 | 1.0 | 5.0 | 0.00 | 0.04 | 0.00 | 79 | 1017.4 |
| 20260831144024 | 84 | 144 | 2.0 | 4.0 | 0.00 | 0.04 | 0.00 | 82 | 1017.3 |
| 20260831143524 | 84 | 284 | 0.0 | 5.0 | 0.00 | 0.04 | 0.00 | 80 | 1017.3 |
| 20260831143050 | 84 | 61 | 2.0 | 5.0 | 0.00 | 0.04 | 0.00 | 81 | 1017.3 |
| 20260831142524 | 84 | 26 | 1.0 | 4.0 | 0.00 | 0.04 | 0.00 | 84 | 1017.2 |
| 20260831142028 | 83 | 49 | 1.0 | 3.0 | 0.00 | 0.04 | 0.00 | 82 | 1017.1 |
| 20260831141555 | 83 | 122 | 1.0 | 2.0 | 0.00 | 0.04 | 0.00 | 84 | 1017.2 |
| 20260831141024 | 83 | 142 | 0.0 | 3.0 | 0.00 | 0.04 | 0.00 | 84 | 1017.2 |
| 20260831140528 | 83 | 0 | 0.0 | 3.0 | 0.00 | 0.04 | 0.00 | 85 | 1017.3 |
| 20260831140048 | 82 | 69 | 0.0 | 3.0 | 0.00 | 0.04 | 0.00 | 85 | 1017.2 |
| 20260831135525 | 82 | 321 | 0.0 | 2.0 | 0.00 | 0.04 | 0.00 | 86 | 1017.2 |
| 20260831135028 | 81 | 0 | 0.0 | 3.0 | 0.00 | 0.04 | 0.00 | 88 | 1017.2 |
| 20260831134545 | 81 | 136 | 0.0 | 3.0 | 0.00 | 0.04 | 0.00 | 89 | 1017.2 |
| 20260831134022 | 81 | 0 | 0.0 | 2.0 | 0.00 | 0.04 | 0.00 | 89 | 1017.1 |
| 20260831133527 | 81 | 0 | 0.0 | 3.0 | 0.00 | 0.04 | 0.00 | 90 | 1017.1 |
| 20260831133042 | 80 | 145 | 0.0 | 3.0 | 0.00 | 0.04 | 0.00 | 91 | 1017.1 |
| 20260831132522 | 80 | 151 | 1.0 | 3.0 | 0.00 | 0.04 | 0.00 | 92 | 1017.1 |
| 20260831132026 | 79 | 70 | 1.0 | 3.0 | 0.00 | 0.04 | 0.00 | 95 | 1017.1 |
| 20260831131540 | 79 | 84 | 1.0 | 2.0 | 0.00 | 0.04 | 0.00 | 96 | 1017.1 |
| 20260831131026 | 79 | 85 | 0.0 | 2.0 | 0.00 | 0.04 | 0.00 | 97 | 1017.2 |
| 20260831130524 | 78 | 0 | 0.0 | 3.0 | 0.00 | 0.04 | 0.00 | 97 | 1017.2 |
| 20260831130050 | 78 | 0 | 1.0 | 3.0 | 0.00 | 0.04 | 0.00 | 97 | 1017.3 |
| 20260831125523 | 78 | 286 | 0.0 | 3.0 | 0.00 | 0.04 | 0.00 | 97 | 1017.2 |
| 20260831125018 | 78 | 0 | 0.0 | 3.0 | 0.00 | 0.04 | 0.00 | 97 | 1017.1 |
| 20260831124540 | 77 | 45 | 0.0 | 2.0 | 0.00 | 0.04 | 0.00 | 97 | 1017.0 |
| 20260831124020 | 77 | 0 | 0.0 | 0.0 | 0.00 | 0.04 | 0.00 | 97 | 1017.0 |
| 20260831123524 | 77 | 0 | 0.0 | 0.0 | 0.00 | 0.04 | 0.00 | 97 | 1017.0 |
| 20260831123050 | 77 | 0 | 0.0 | 0.0 | 0.00 | 0.04 | 0.00 | 97 | 1016.8 |
| 20260831122525 | 76 | 0 | 0.0 | 0.0 | 0.00 | 0.04 | 0.00 | 97 | 1016.7 |
| 20260831122024 | 76 | 0 | 0.0 | 0.0 | 0.00 | 0.04 | 0.00 | 97 | 1016.7 |
| 20260831121544 | 75 | 0 | 0.0 | 0.0 | 0.00 | 0.04 | 0.00 | 97 | 1016.6 |
| 20260831121022 | 75 | 0 | 0.0 | 0.0 | 0.00 | 0.04 | 0.00 | 97 | 1016.6 |
| 20260831120525 | 75 | 0 | 0.0 | 0.0 | 0.00 | 0.04 | 0.00 | 97 | 1016.7 |
| 20260831120043 | 74 | 0 | 0.0 | 0.0 | 0.00 | 0.04 | 0.00 | 97 | 1016.6 |
| 20260831115519 | 74 | 0 | 0.0 | 0.0 | 0.00 | 0.04 | 0.00 | 97 | 1016.5 |
| 20260831115024 | 74 | 0 | 0.0 | 0.0 | 0.00 | 0.04 | 0.00 | 97 | 1016.4 |
| 20260831114550 | 73 | 0 | 0.0 | 0.0 | 0.00 | 0.04 | 0.00 | 97 | 1016.3 |
| 20260831114025 | 73 | 0 | 0.0 | 0.0 | 0.00 | 0.04 | 0.00 | 97 | 1016.3 |
| 20260831113527 | 73 | 0 | 0.0 | 0.0 | 0.00 | 0.04 | 0.00 | 97 | 1016.3 |
| 20260831113046 | 73 | 0 | 0.0 | 0.0 | 0.00 | 0.04 | 0.00 | 97 | 1016.3 |
| 20260831112524 | 73 | 0 | 0.0 | 0.0 | 0.00 | 0.04 | 0.00 | 97 | 1016.3 |
| 20260831112021 | 73 | 0 | 0.0 | 0.0 | 0.00 | 0.04 | 0.00 | 97 | 1016.2 |
| 20260831111552 | 72 | 0 | 0.0 | 0.0 | 0.00 | 0.04 | 0.00 | 97 | 1016.2 |
| 20260831111020 | 73 | 0 | 0.0 | 0.0 | 0.00 | 0.04 | 0.00 | 97 | 1016.1 |
| 20260831110521 | 73 | 0 | 0.0 | 0.0 | 0.00 | 0.04 | 0.00 | 97 | 1016.1 |
| 20260831110047 | 72 | 0 | 0.0 | 0.0 | 0.00 | 0.04 | 0.00 | 97 | 1016.0 |
| 20260831105525 | 73 | 0 | 0.0 | 0.0 | 0.00 | 0.04 | 0.00 | 97 | 1016.0 |
| 20260831105023 | 72 | 0 | 0.0 | 0.0 | 0.00 | 0.04 | 0.00 | 97 | 1016.0 |
| 20260831104555 | 72 | 0 | 0.0 | 0.0 | 0.00 | 0.04 | 0.00 | 97 | 1015.9 |
| 20260831104019 | 72 | 0 | 0.0 | 0.0 | 0.00 | 0.04 | 0.00 | 97 | 1015.9 |
| 20260831103521 | 72 | 0 | 0.0 | 0.0 | 0.00 | 0.04 | 0.00 | 97 | 1015.7 |
| 20260831103041 | 72 | 0 | 0.0 | 0.0 | 0.00 | 0.04 | 0.00 | 97 | 1015.7 |
| 20260831102524 | 72 | 0 | 0.0 | 0.0 | 0.00 | 0.04 | 0.00 | 97 | 1015.6 |
| 20260831102025 | 72 | 0 | 0.0 | 0.0 | 0.00 | 0.04 | 0.00 | 97 | 1015.6 |
| 20260831101548 | 72 | 0 | 0.0 | 0.0 | 0.00 | 0.04 | 0.00 | 97 | 1015.5 |
| 20260831101025 | 73 | 0 | 0.0 | 0.0 | 0.00 | 0.04 | 0.00 | 97 | 1015.4 |
| 20260831100526 | 72 | 0 | 0.0 | 0.0 | 0.00 | 0.04 | 0.00 | 97 | 1015.4 |
| 20260831100047 | 72 | 0 | 0.0 | 0.0 | 0.00 | 0.04 | 0.00 | 97 | 1015.4 |
| 20260831095523 | 73 | 0 | 0.0 | 0.0 | 0.00 | 0.04 | 0.00 | 97 | 1015.4 |
| 20260831095023 | 72 | 0 | 0.0 | 0.0 | 0.00 | 0.04 | 0.00 | 97 | 1015.3 |
| 20260831094541 | 72 | 0 | 0.0 | 0.0 | 0.00 | 0.04 | 0.00 | 97 | 1015.3 |
| 20260831094020 | 72 | 0 | 0.0 | 0.0 | 0.00 | 0.04 | 0.00 | 97 | 1015.4 |
| 20260831093520 | 72 | 0 | 0.0 | 0.0 | 0.00 | 0.04 | 0.00 | 97 | 1015.4 |
| 20260831093049 | 73 | 0 | 0.0 | 0.0 | 0.00 | 0.04 | 0.00 | 97 | 1015.4 |
| 20260831092524 | 73 | 0 | 0.0 | 0.0 | 0.00 | 0.04 | 0.00 | 97 | 1015.3 |
| 20260831092025 | 73 | 0 | 0.0 | 0.0 | 0.00 | 0.04 | 0.00 | 97 | 1015.4 |
| 20260831091541 | 73 | 0 | 0.0 | 0.0 | 0.00 | 0.04 | 0.00 | 97 | 1015.4 |
| 20260831091020 | 72 | 0 | 0.0 | 0.0 | 0.00 | 0.04 | 0.00 | 96 | 1015.4 |
| 20260831090523 | 73 | 0 | 0.0 | 0.0 | 0.00 | 0.04 | 0.00 | 97 | 1015.3 |
| 20260831090043 | 73 | 0 | 0.0 | 0.0 | 0.00 | 0.04 | 0.00 | 97 | 1015.2 |
| 20260831085521 | 72 | 0 | 0.0 | 0.0 | 0.00 | 0.04 | 0.00 | 96 | 1015.2 |
| 20260831085020 | 73 | 0 | 0.0 | 0.0 | 0.00 | 0.04 | 0.00 | 96 | 1015.2 |
| 20260831084542 | 73 | 0 | 0.0 | 0.0 | 0.00 | 0.04 | 0.00 | 97 | 1015.2 |
| 20260831084026 | 73 | 0 | 0.0 | 0.0 | 0.00 | 0.04 | 0.00 | 96 | 1015.3 |
| 20260831083526 | 73 | 0 | 0.0 | 0.0 | 0.00 | 0.04 | 0.00 | 96 | 1015.3 |
| 20260831083045 | 73 | 0 | 0.0 | 0.0 | 0.00 | 0.04 | 0.00 | 97 | 1015.3 |
| 20260831082523 | 73 | 0 | 0.0 | 0.0 | 0.00 | 0.04 | 0.00 | 96 | 1015.3 |
| 20260831082023 | 73 | 0 | 0.0 | 0.0 | 0.00 | 0.04 | 0.00 | 96 | 1015.2 |
| 20260831081541 | 73 | 0 | 0.0 | 0.0 | 0.00 | 0.04 | 0.00 | 97 | 1015.3 |
| 20260831081017 | 73 | 0 | 0.0 | 0.0 | 0.00 | 0.04 | 0.00 | 97 | 1015.3 |
| 20260831080521 | 73 | 0 | 0.0 | 0.0 | 0.00 | 0.04 | 0.00 | 97 | 1015.3 |
| 20260831080051 | 73 | 0 | 0.0 | 0.0 | 0.00 | 0.04 | 0.00 | 96 | 1015.3 |
| 20260831075525 | 73 | 0 | 0.0 | 0.0 | 0.00 | 0.04 | 0.00 | 96 | 1015.3 |
| 20260831075026 | 73 | 0 | 0.0 | 0.0 | 0.00 | 0.04 | 0.00 | 96 | 1015.3 |
| 20260831074550 | 73 | 0 | 0.0 | 0.0 | 0.00 | 0.04 | 0.00 | 96 | 1015.4 |
| 20260831074023 | 73 | 0 | 0.0 | 0.0 | 0.00 | 0.04 | 0.00 | 96 | 1015.3 |
| 20260831073524 | 73 | 0 | 0.0 | 0.0 | 0.00 | 0.04 | 0.00 | 96 | 1015.5 |
| 20260831073046 | 73 | 0 | 0.0 | 0.0 | 0.00 | 0.04 | 0.00 | 96 | 1015.5 |
| 20260831072526 | 73 | 0 | 0.0 | 0.0 | 0.00 | 0.04 | 0.00 | 96 | 1015.5 |
| 20260831072019 | 73 | 0 | 0.0 | 0.0 | 0.00 | 0.04 | 0.00 | 96 | 1015.6 |
| 20260831071542 | 73 | 0 | 0.0 | 0.0 | 0.00 | 0.04 | 0.00 | 96 | 1015.7 |
| 20260831071021 | 73 | 0 | 0.0 | 0.0 | 0.00 | 0.04 | 0.00 | 96 | 1015.6 |
| 20260831070524 | 73 | 0 | 0.0 | 0.0 | 0.00 | 0.04 | 0.00 | 96 | 1015.6 |
| 20260831070042 | 73 | 0 | 0.0 | 0.0 | 0.00 | 0.04 | 0.00 | 96 | 1015.7 |
| 20260831065536 | 73 | 0 | 0.0 | 0.0 | 0.00 | 0.04 | 0.00 | 96 | 1015.8 |
| 20260831065025 | 73 | 0 | 0.0 | 0.0 | 0.00 | 0.04 | 0.00 | 96 | 1015.7 |
| 20260831064545 | 73 | 0 | 0.0 | 0.0 | 0.00 | 0.04 | 0.00 | 96 | 1015.7 |
| 20260831064023 | 73 | 0 | 0.0 | 0.0 | 0.00 | 0.04 | 0.00 | 96 | 1015.8 |
| 20260831063523 | 73 | 0 | 0.0 | 0.0 | 0.00 | 0.04 | 0.00 | 96 | 1015.8 |
| 20260831063043 | 73 | 0 | 0.0 | 0.0 | 0.00 | 0.04 | 0.00 | 96 | 1016.0 |
| 20260831062523 | 73 | 0 | 0.0 | 0.0 | 0.00 | 0.04 | 0.00 | 96 | 1016.1 |
| 20260831062021 | 73 | 0 | 0.0 | 0.0 | 0.00 | 0.04 | 0.00 | 96 | 1016.2 |
| 20260831061543 | 73 | 0 | 0.0 | 0.0 | 0.00 | 0.04 | 0.00 | 96 | 1016.1 |
| 20260831061025 | 74 | 0 | 0.0 | 0.0 | 0.00 | 0.04 | 0.00 | 96 | 1016.1 |
| 20260831060525 | 74 | 0 | 0.0 | 0.0 | 0.00 | 0.04 | 0.00 | 96 | 1016.1 |
| 20260831060046 | 73 | 0 | 0.0 | 0.0 | 0.00 | 0.04 | 0.00 | 96 | 1016.2 |
| 20260831055524 | 73 | 0 | 0.0 | 0.0 | 0.00 | 0.04 | 0.00 | 96 | 1016.3 |
| 20260831055020 | 73 | 0 | 0.0 | 0.0 | 0.00 | 0.04 | 0.00 | 96 | 1016.4 |
| 20260831054543 | 74 | 0 | 0.0 | 0.0 | 0.00 | 0.04 | 0.00 | 96 | 1016.5 |
| 20260831054024 | 73 | 0 | 0.0 | 0.0 | 0.00 | 0.04 | 0.00 | 96 | 1016.5 |
| 20260831053524 | 73 | 0 | 0.0 | 0.0 | 0.00 | 0.04 | 0.00 | 96 | 1016.6 |
| 20260831053042 | 74 | 0 | 0.0 | 0.0 | 0.00 | 0.04 | 0.00 | 96 | 1016.5 |
| 20260831052525 | 74 | 0 | 0.0 | 0.0 | 0.00 | 0.04 | 0.00 | 96 | 1016.5 |
| 20260831052028 | 74 | 0 | 0.0 | 0.0 | 0.00 | 0.04 | 0.00 | 96 | 1016.6 |
| 20260831051544 | 74 | 0 | 0.0 | 0.0 | 0.00 | 0.04 | 0.00 | 96 | 1016.4 |
| 20260831051023 | 74 | 0 | 0.0 | 0.0 | 0.00 | 0.04 | 0.00 | 96 | 1016.5 |
| 20260831050524 | 74 | 0 | 0.0 | 0.0 | 0.00 | 0.04 | 0.00 | 96 | 1016.4 |
| 20260831050045 | 74 | 0 | 0.0 | 0.0 | 0.00 | 0.04 | 0.00 | 96 | 1016.5 |
| 20260831045523 | 74 | 0 | 0.0 | 0.0 | 0.00 | 0.04 | 0.00 | 96 | 1016.4 |
| 20260831045023 | 74 | 0 | 0.0 | 0.0 | 0.00 | 0.04 | 0.00 | 96 | 1016.5 |
| 20260831044602 | 74 | 0 | 0.0 | 0.0 | 0.00 | 0.04 | 0.00 | 96 | 1016.5 |
| 20260831044023 | 74 | 0 | 0.0 | 0.0 | 0.00 | 0.04 | 0.00 | 96 | 1016.5 |
| 20260831043518 | 74 | 0 | 0.0 | 0.0 | 0.00 | 0.04 | 0.00 | 96 | 1016.7 |
| 20260831043044 | 74 | 0 | 0.0 | 0.0 | 0.00 | 0.04 | 0.00 | 95 | 1016.7 |
| 20260831042525 | 74 | 0 | 0.0 | 0.0 | 0.00 | 0.04 | 0.00 | 95 | 1016.6 |
| 20260831042024 | 74 | 0 | 0.0 | 0.0 | 0.00 | 0.04 | 0.00 | 95 | 1016.7 |
| 20260831041556 | 74 | 0 | 0.0 | 0.0 | 0.00 | 0.04 | 0.00 | 95 | 1016.5 |
| 20260831041024 | 74 | 0 | 0.0 | 0.0 | 0.00 | 0.04 | 0.00 | 95 | 1016.5 |
| 20260831040523 | 74 | 0 | 0.0 | 0.0 | 0.00 | 0.04 | 0.00 | 95 | 1016.8 |
| 20260831040044 | 74 | 0 | 0.0 | 0.0 | 0.00 | 0.04 | 0.00 | 95 | 1016.8 |
| 20260831035520 | 74 | 0 | 0.0 | 0.0 | 0.00 | 0.04 | 0.04 | 95 | 1016.8 |
| 20260831035020 | 75 | 0 | 0.0 | 0.0 | 0.00 | 0.04 | 0.04 | 95 | 1016.7 |
| 20260831034541 | 75 | 0 | 0.0 | 0.0 | 0.00 | 0.04 | 0.04 | 95 | 1016.8 |
| 20260831034023 | 75 | 0 | 0.0 | 0.0 | 0.00 | 0.04 | 0.04 | 95 | 1016.7 |
| 20260831033525 | 75 | 0 | 0.0 | 0.0 | 0.00 | 0.04 | 0.04 | 95 | 1016.8 |
| 20260831033043 | 75 | 0 | 0.0 | 0.0 | 0.00 | 0.04 | 0.04 | 95 | 1016.8 |
| 20260831032523 | 75 | 0 | 0.0 | 0.0 | 0.00 | 0.04 | 0.04 | 95 | 1016.7 |
| 20260831032023 | 75 | 0 | 0.0 | 0.0 | 0.00 | 0.04 | 0.04 | 95 | 1016.9 |
| 20260831031541 | 75 | 0 | 0.0 | 0.0 | 0.00 | 0.04 | 0.04 | 95 | 1016.7 |
| 20260831031020 | 75 | 0 | 0.0 | 0.0 | 0.00 | 0.04 | 0.04 | 95 | 1016.7 |
| 20260831030521 | 75 | 0 | 0.0 | 0.0 | 0.00 | 0.04 | 0.04 | 95 | 1016.8 |
| 20260831030042 | 75 | 0 | 0.0 | 0.0 | 0.00 | 0.04 | 0.04 | 95 | 1016.8 |
| 20260831025525 | 75 | 0 | 0.0 | 0.0 | 0.00 | 0.04 | 0.04 | 95 | 1016.9 |
| 20260831025023 | 75 | 0 | 0.0 | 0.0 | 0.00 | 0.04 | 0.04 | 94 | 1016.9 |
| 20260831024548 | 75 | 0 | 0.0 | 0.0 | 0.00 | 0.04 | 0.04 | 94 | 1016.9 |
| 20260831024024 | 75 | 0 | 0.0 | 0.0 | 0.00 | 0.04 | 0.04 | 94 | 1017.0 |
| 20260831023522 | 75 | 0 | 0.0 | 0.0 | 0.00 | 0.04 | 0.04 | 94 | 1016.9 |
| 20260831023041 | 76 | 0 | 0.0 | 0.0 | 0.00 | 0.04 | 0.04 | 94 | 1016.9 |
| 20260831022519 | 75 | 0 | 0.0 | 0.0 | 0.00 | 0.04 | 0.04 | 94 | 1017.0 |
| 20260831022018 | 76 | 0 | 0.0 | 0.0 | 0.00 | 0.04 | 0.04 | 94 | 1016.8 |
| 20260831021542 | 76 | 0 | 0.0 | 0.0 | 0.00 | 0.04 | 0.04 | 94 | 1016.8 |
| 20260831021018 | 76 | 0 | 0.0 | 1.0 | 0.00 | 0.04 | 0.04 | 94 | 1016.9 |
| 20260831020520 | 76 | 0 | 0.0 | 1.0 | 0.00 | 0.04 | 0.04 | 94 | 1017.0 |
| 20260831020041 | 76 | 0 | 0.0 | 1.0 | 0.00 | 0.04 | 0.04 | 93 | 1017.0 |
| 20260831015520 | 76 | 0 | 0.0 | 1.0 | 0.00 | 0.04 | 0.04 | 93 | 1016.9 |
| 20260831015021 | 76 | 0 | 0.0 | 0.0 | 0.00 | 0.04 | 0.04 | 93 | 1016.8 |
| 20260831014542 | 76 | 0 | 0.0 | 0.0 | 0.00 | 0.04 | 0.04 | 93 | 1016.9 |
| 20260831014020 | 76 | 0 | 0.0 | 3.0 | 0.00 | 0.04 | 0.04 | 93 | 1016.8 |
| 20260831013525 | 76 | 0 | 0.0 | 3.0 | 0.00 | 0.04 | 0.04 | 92 | 1016.8 |
| 20260831013043 | 76 | 0 | 0.0 | 3.0 | 0.00 | 0.04 | 0.04 | 92 | 1016.7 |
| 20260831012525 | 76 | 269 | 0.0 | 0.0 | 0.00 | 0.04 | 0.04 | 92 | 1016.7 |
| 20260831012023 | 76 | 0 | 0.0 | 0.0 | 0.00 | 0.04 | 0.04 | 92 | 1016.7 |
| 20260831011542 | 76 | 0 | 0.0 | 2.0 | 0.00 | 0.04 | 0.04 | 92 | 1016.6 |
| 20260831011024 | 76 | 0 | 0.0 | 3.0 | 0.00 | 0.04 | 0.04 | 92 | 1016.8 |
| 20260831010526 | 77 | 0 | 1.0 | 3.0 | 0.00 | 0.04 | 0.04 | 92 | 1016.7 |
| 20260831010046 | 77 | 269 | 1.0 | 3.0 | 0.00 | 0.04 | 0.04 | 92 | 1016.8 |
| 20260831005520 | 77 | 269 | 1.0 | 3.0 | 0.00 | 0.04 | 0.04 | 92 | 1016.7 |
| 20260831005023 | 77 | 269 | 2.0 | 3.0 | 0.00 | 0.04 | 0.04 | 92 | 1016.8 |
| 20260831004543 | 77 | 269 | 1.0 | 3.0 | 0.00 | 0.04 | 0.04 | 91 | 1016.7 |
| 20260831004024 | 77 | 259 | 0.0 | 3.0 | 0.00 | 0.04 | 0.04 | 91 | 1016.6 |
| 20260831003526 | 77 | 0 | 0.0 | 1.0 | 0.00 | 0.04 | 0.04 | 90 | 1016.6 |
| 20260831003041 | 78 | 0 | 0.0 | 2.0 | 0.00 | 0.04 | 0.04 | 89 | 1016.6 |
| 20260831002525 | 78 | 0 | 0.0 | 2.0 | 0.00 | 0.04 | 0.04 | 89 | 1016.4 |
| 20260831002025 | 78 | 82 | 0.0 | 3.0 | 0.00 | 0.04 | 0.04 | 89 | 1016.3 |
| 20260831001545 | 78 | 0 | 0.0 | 3.0 | 0.00 | 0.04 | 0.04 | 88 | 1016.4 |